Weather History for KMCC - February, 2013

Change the Weather History Date:

Tuesday, February 19, 2013

  Actual Average (KMHR) Record (KMHR)
Temperature  
Mean Temperature 40 °F -  
Max Temperature 46 °F 56 °F 64 °F (2007)
Min Temperature 33 °F 40 °F 33 °F (2012)
Degree Days  
Heating Degree Days 24    
Moisture  
Dew Point 37 °F    
Average Humidity 84    
Maximum Humidity 93    
Minimum Humidity 71    
Precipitation  
Precipitation 0.00 in - - ()
Sea Level Pressure  
Sea Level Pressure 29.84 in    
Wind  
Wind Speed 12 mph (SSE)    
Max Wind Speed 21 mph    
Max Gust Speed 28 mph    
Visibility 9 miles    
Events Rain    
Averages and records for this station are not official NWS values.
T = Trace of Precipitation, MM = Missing Value Source: NWS Daily Summary

Daily Weather History Graph

Daily Weather History Graph

Search for Another Location

Airport or City:

Trip Planner

Search our weather history database for the weather conditions in past years. The results will help you decide how hot, cold, wet, or windy it might be!

Date:

Astronomy

Feb. 19, 2013 Rise Set
Actual Time 6:51 AM PST 5:48 PM PST
Civil Twilight 6:24 AM PST 6:15 PM PST
Nautical Twilight 5:53 AM PST 6:46 PM PST
Astronomical Twilight 5:22 AM PST 7:17 PM PST
Moon 12:26 PM PST (2/19) 2:25 AM PST (2/19)
Length of Visible Light 11h 51m
Length of Day
10h 57m
Waxing Gibbous, 68% of the Moon is Illuminated
Feb 19
Waxing Gibbous
Feb 25
Full
Mar 4
Last Quarter
Mar 11
New
Mar 19
First Quarter

Hourly Weather History & Observations

Time (PST) Temp. Windchill Dew Point Humidity Pressure Visibility Wind Dir Wind Speed Gust Speed Precip Events Conditions
12:10 AM 46.4 °F 40.1 °F 37.4 °F 71% 29.94 in 10.0 mi South 15.0 mph - N/A   Scattered Clouds
12:30 AM 44.6 °F 38.4 °F 37.4 °F 76% 29.94 in 10.0 mi South 12.7 mph - N/A   Clear
12:50 AM 44.6 °F 38.1 °F 37.4 °F 76% 29.94 in 10.0 mi South 13.8 mph 18.4 mph N/A   Clear
1:10 AM 44.6 °F 37.4 °F 37.4 °F 76% 29.94 in 10.0 mi South 16.1 mph - N/A   Scattered Clouds
1:30 AM 44.6 °F 38.4 °F 37.4 °F 76% 29.94 in 10.0 mi South 12.7 mph - N/A   Mostly Cloudy
1:50 AM 42.8 °F 37.0 °F 37.4 °F 81% 29.93 in 10.0 mi South 10.4 mph - N/A   Partly Cloudy
2:10 AM 42.8 °F 37.0 °F 37.4 °F 81% 29.93 in 10.0 mi South 10.4 mph - N/A   Clear
2:30 AM 41.0 °F 34.7 °F 35.6 °F 81% 29.92 in 10.0 mi SSE 10.4 mph - N/A   Clear
2:50 AM 41.0 °F 34.3 °F 35.6 °F 81% 29.91 in 10.0 mi South 11.5 mph - N/A   Clear
3:10 AM 41.0 °F 34.7 °F 35.6 °F 81% 29.91 in 10.0 mi South 10.4 mph - N/A   Clear
3:30 AM 41.0 °F 35.2 °F 35.6 °F 81% 29.91 in 10.0 mi South 9.2 mph - N/A   Clear
3:50 AM 39.2 °F 33.6 °F 35.6 °F 87% 29.91 in 10.0 mi SSE 8.1 mph - N/A   Clear
4:10 AM 39.2 °F 33.0 °F 35.6 °F 87% 29.91 in 10.0 mi SSE 9.2 mph - N/A   Clear
4:30 AM 39.2 °F 33.6 °F 35.6 °F 87% 29.92 in 10.0 mi SE 8.1 mph - N/A   Clear
4:50 AM 39.2 °F 33.0 °F 35.6 °F 87% 29.91 in 10.0 mi SSE 9.2 mph - N/A   Clear
5:10 AM 39.2 °F 32.5 °F 35.6 °F 87% 29.91 in 10.0 mi SSE 10.4 mph - N/A   Clear
5:30 AM 41.0 °F 34.7 °F 35.6 °F 81% 29.91 in 10.0 mi SE 10.4 mph - N/A   Clear
5:50 AM 41.0 °F 34.7 °F 35.6 °F 81% 29.91 in 10.0 mi SE 10.4 mph - N/A   Scattered Clouds
6:10 AM 41.0 °F 35.2 °F 37.4 °F 87% 29.91 in 10.0 mi SE 9.2 mph - N/A   Mostly Cloudy
6:30 AM 41.0 °F 34.3 °F 37.4 °F 87% 29.90 in 10.0 mi SE 11.5 mph - N/A   Scattered Clouds
6:50 AM 42.8 °F 37.0 °F 37.4 °F 81% 29.90 in 10.0 mi SSE 10.4 mph - N/A   Mostly Cloudy
7:10 AM 42.8 °F 35.8 °F 37.4 °F 81% 29.89 in 3.0 mi SSE 13.8 mph - N/A   Haze
7:30 AM 42.8 °F 35.8 °F 39.2 °F 87% 29.88 in 8.0 mi SE 13.8 mph 20.7 mph N/A   Overcast
7:50 AM 44.6 °F 38.8 °F 37.4 °F 76% 29.88 in 10.0 mi SE 11.5 mph - N/A   Overcast
8:10 AM 42.8 °F 35.4 °F 39.2 °F 87% 29.88 in 1.0 mi SSE 15.0 mph 23.0 mph N/A   Overcast
8:30 AM 44.6 °F 37.8 °F 41.0 °F 87% 29.86 in 8.0 mi SSE 15.0 mph 18.4 mph N/A   Overcast
8:50 AM 44.6 °F 36.9 °F 39.2 °F 81% 29.85 in 10.0 mi SE 18.4 mph 21.9 mph N/A   Mostly Cloudy
9:10 AM 44.6 °F 37.8 °F 39.2 °F 81% 29.84 in 7.0 mi SSE 15.0 mph - N/A Rain Light Rain
9:30 AM 44.6 °F 38.1 °F 39.2 °F 81% 29.83 in 3.0 mi SSE 13.8 mph - N/A Rain Light Rain
10:10 AM 46.4 °F 40.4 °F 41.0 °F 81% 29.82 in 5.0 mi SSE 13.8 mph - N/A Rain Light Rain
10:30 AM 46.4 °F 38.7 °F 41.0 °F 81% 29.82 in 2.5 mi South 20.7 mph 27.6 mph N/A Rain Light Rain
10:50 AM 44.6 °F 38.1 °F 41.0 °F 87% 29.82 in 1.5 mi South 13.8 mph - N/A Rain Light Rain
11:10 AM 44.6 °F 37.2 °F 41.0 °F 87% 29.82 in 1.0 mi SSW 17.3 mph 24.2 mph N/A Rain Light Rain
11:30 AM 42.8 °F 35.1 °F 39.2 °F 87% 29.81 in 5.0 mi South 16.1 mph 24.2 mph N/A Rain Light Rain
11:50 AM 44.6 °F 37.8 °F 39.2 °F 81% 29.80 in 9.0 mi South 15.0 mph - N/A   Partly Cloudy
12:10 PM 44.6 °F 37.4 °F 41.0 °F 87% 29.80 in 9.0 mi South 16.1 mph - N/A   Scattered Clouds
12:30 PM 44.6 °F 38.1 °F 41.0 °F 87% 29.80 in 7.0 mi South 13.8 mph 18.4 mph N/A Rain Light Rain
12:50 PM 44.6 °F 38.8 °F 41.0 °F 87% 29.79 in 5.0 mi South 11.5 mph 18.4 mph N/A Rain Light Rain
1:10 PM 44.6 °F 39.2 °F 42.8 °F 93% 29.78 in 8.0 mi South 10.4 mph - N/A   Mostly Cloudy
1:30 PM 44.6 °F 38.1 °F 41.0 °F 87% 29.77 in 7.0 mi South 13.8 mph - N/A   Overcast
1:50 PM 44.6 °F 38.8 °F 41.0 °F 87% 29.77 in 10.0 mi South 11.5 mph - N/A   Mostly Cloudy
2:10 PM 44.6 °F 38.1 °F 39.2 °F 81% 29.76 in 3.0 mi SSE 13.8 mph 18.4 mph N/A Rain Light Rain
2:30 PM 44.6 °F 39.7 °F 39.2 °F 81% 29.76 in 10.0 mi SE 9.2 mph - N/A   Scattered Clouds
2:50 PM 44.6 °F 40.7 °F 37.4 °F 76% 29.76 in 10.0 mi South 6.9 mph - N/A   Partly Cloudy
3:10 PM 44.6 °F 40.2 °F 37.4 °F 76% 29.76 in 10.0 mi SSE 8.1 mph - N/A   Partly Cloudy
4:10 PM 44.6 °F 39.7 °F 37.4 °F 76% 29.75 in 10.0 mi SE 9.2 mph - N/A   Clear
4:30 PM 44.6 °F 38.8 °F 37.4 °F 76% 29.76 in 10.0 mi ESE 11.5 mph - N/A   Scattered Clouds
4:50 PM 44.6 °F 38.8 °F 37.4 °F 76% 29.76 in 10.0 mi SE 11.5 mph - N/A   Scattered Clouds
5:10 PM 44.6 °F 39.7 °F 37.4 °F 76% 29.75 in 10.0 mi ESE 9.2 mph - N/A   Scattered Clouds
5:30 PM 42.8 °F 37.0 °F 35.6 °F 76% 29.75 in 10.0 mi SE 10.4 mph - N/A   Mostly Cloudy
5:50 PM 42.8 °F 38.0 °F 35.6 °F 76% 29.76 in 10.0 mi SE 8.1 mph - N/A   Mostly Cloudy
6:10 PM 41.0 °F 35.2 °F 35.6 °F 81% 29.76 in 10.0 mi ESE 9.2 mph - N/A   Overcast
6:30 PM 41.0 °F 35.2 °F 35.6 °F 81% 29.77 in 10.0 mi SE 9.2 mph - N/A   Overcast
6:50 PM 41.0 °F 36.4 °F 35.6 °F 81% 29.77 in 10.0 mi ESE 6.9 mph - N/A   Overcast
7:10 PM 39.2 °F 35.0 °F 37.4 °F 93% 29.78 in 10.0 mi SSE 5.8 mph - N/A   Mostly Cloudy
7:30 PM 41.0 °F 32.8 °F 35.6 °F 81% 29.80 in 10.0 mi NW 16.1 mph 23.0 mph N/A   Mostly Cloudy
7:50 PM 37.4 °F 28.5 °F 35.6 °F 93% 29.81 in 10.0 mi WNW 15.0 mph 20.7 mph N/A   Overcast
8:10 PM 37.4 °F 30.3 °F 35.6 °F 93% 29.80 in 7.0 mi WNW 10.4 mph - N/A   Overcast
8:30 PM 39.2 °F 35.0 °F 35.6 °F 87% 29.80 in 10.0 mi NW 5.8 mph - N/A   Overcast
8:50 PM 37.4 °F 33.8 °F 35.6 °F 93% 29.80 in 10.0 mi WNW 4.6 mph - N/A   Scattered Clouds
9:10 PM 37.4 °F 32.8 °F 35.6 °F 93% 29.80 in 10.0 mi NW 5.8 mph - N/A   Partly Cloudy
9:30 PM 37.4 °F 31.4 °F 33.8 °F 87% 29.80 in 10.0 mi WNW 8.1 mph - N/A   Clear
9:50 PM 35.6 °F 29.2 °F 33.8 °F 93% 29.82 in 10.0 mi NNW 8.1 mph - N/A   Clear
10:10 PM 37.4 °F 30.8 °F 33.8 °F 87% 29.82 in 10.0 mi NW 9.2 mph - N/A   Clear
10:30 PM 37.4 °F 31.4 °F 33.8 °F 87% 29.82 in 10.0 mi North 8.1 mph - N/A   Clear
10:50 PM 35.6 °F 29.9 °F 33.8 °F 93% 29.83 in 10.0 mi North 6.9 mph - N/A   Clear
11:10 PM 35.6 °F 29.9 °F 33.8 °F 93% 29.83 in 10.0 mi NNW 6.9 mph - N/A   Clear
11:30 PM 35.6 °F 30.7 °F 32.0 °F 87% 29.84 in 10.0 mi NNW 5.8 mph - N/A   Clear
11:50 PM 33.8 °F 29.6 °F 32.0 °F 93% 29.85 in 10.0 mi NW 4.6 mph - N/A   Clear